Location: *
(48.8489°N, 2.3218°E)
Time: 08:03:40
(UTC+00:00)

Meteor 1-15 Rocket - Pass Details

Date: 23 August 2019
Orbit: 840 x 907 km, 81.2° (Epoch: 15 September)

Event Time Altitude Azimuth Distance (km) Brightness Sun altitude
Exits shadow 23:08:50 71° 44° (NE) 898 4.3 -29.1°
Drops below altitude 10° 23:13:59 10° 14° (NNE) 2,503 7.4 -29.2°
Sets 23:16:26 0° 13° (NNE) 3,454 8.4 -29.3°
